Year,Month,Day,Hour,Minute,Value (Times are PST for temperature in C)
2014,08,14,00,00,15.40
2014,08,14,00,01,15.40
2014,08,14,00,02,15.40
2014,08,14,00,03,15.40
2014,08,14,00,04,15.40
2014,08,14,00,05,15.50
2014,08,14,00,06,15.50
2014,08,14,00,07,15.50
2014,08,14,00,08,15.50
2014,08,14,00,09,15.50
2014,08,14,00,10,15.60
2014,08,14,00,11,15.50
2014,08,14,00,12,15.50
2014,08,14,00,13,15.50
2014,08,14,00,14,15.50
2014,08,14,00,15,15.50
2014,08,14,00,16,15.50
2014,08,14,00,17,15.40
2014,08,14,00,18,15.40
2014,08,14,00,19,15.40
2014,08,14,00,20,15.40
2014,08,14,00,21,15.40
2014,08,14,00,22,15.40
2014,08,14,00,23,15.40
2014,08,14,00,24,15.40
2014,08,14,00,25,15.40
2014,08,14,00,26,15.40
2014,08,14,00,27,15.40
2014,08,14,00,28,15.40
2014,08,14,00,29,15.40
2014,08,14,00,30,15.40
2014,08,14,00,31,15.40
2014,08,14,00,32,15.40
2014,08,14,00,33,15.30
2014,08,14,00,34,15.30
2014,08,14,00,35,15.40
2014,08,14,00,36,15.40
2014,08,14,00,37,15.40
2014,08,14,00,38,15.40
2014,08,14,00,39,15.40
2014,08,14,00,40,15.40
2014,08,14,00,41,15.40
2014,08,14,00,42,15.50
2014,08,14,00,43,15.50
2014,08,14,00,44,15.50
2014,08,14,00,45,15.50
2014,08,14,00,46,15.50
2014,08,14,00,47,15.40
2014,08,14,00,48,15.40
2014,08,14,00,49,15.40
2014,08,14,00,50,15.40
2014,08,14,00,51,15.40
2014,08,14,00,52,15.40
2014,08,14,00,53,15.40
2014,08,14,00,54,15.40
2014,08,14,00,55,15.30
2014,08,14,00,56,15.30
2014,08,14,00,57,15.30
2014,08,14,00,58,15.30
2014,08,14,00,59,15.30
2014,08,14,01,00,15.30
2014,08,14,01,01,15.30
2014,08,14,01,02,15.30
2014,08,14,01,03,15.20
2014,08,14,01,04,15.20
2014,08,14,01,05,15.20
2014,08,14,01,06,15.20
2014,08,14,01,07,15.20
2014,08,14,01,08,15.20
2014,08,14,01,09,15.20
2014,08,14,01,10,15.20
2014,08,14,01,11,15.20
2014,08,14,01,12,15.20
2014,08,14,01,13,15.20
2014,08,14,01,14,15.20
2014,08,14,01,15,15.20
2014,08,14,01,16,15.20
2014,08,14,01,17,15.20
2014,08,14,01,18,15.20
2014,08,14,01,19,15.20
2014,08,14,01,20,15.20
2014,08,14,01,21,15.20
2014,08,14,01,22,15.20
2014,08,14,01,23,15.20
2014,08,14,01,24,15.20
2014,08,14,01,25,15.20
2014,08,14,01,26,15.20
2014,08,14,01,27,15.20
2014,08,14,01,28,15.20
2014,08,14,01,29,15.20
2014,08,14,01,30,15.20
2014,08,14,01,31,15.20
2014,08,14,01,32,15.20
2014,08,14,01,33,15.20
2014,08,14,01,34,15.30
2014,08,14,01,35,15.30
2014,08,14,01,36,15.30
2014,08,14,01,37,15.30
2014,08,14,01,38,15.30
2014,08,14,01,39,15.30
2014,08,14,01,40,15.30
2014,08,14,01,41,15.20
2014,08,14,01,42,15.20
2014,08,14,01,43,15.20
2014,08,14,01,44,15.20
2014,08,14,01,45,15.20
2014,08,14,01,46,15.30
2014,08,14,01,47,15.30
2014,08,14,01,48,15.30
2014,08,14,01,49,15.30
2014,08,14,01,50,15.30
2014,08,14,01,51,15.30
2014,08,14,01,52,15.20
2014,08,14,01,53,15.20
2014,08,14,01,54,15.20
2014,08,14,01,55,15.20
2014,08,14,01,56,15.20
2014,08,14,01,57,15.20
2014,08,14,01,58,15.20
2014,08,14,01,59,15.10
2014,08,14,02,00,15.10
2014,08,14,02,01,15.10
2014,08,14,02,02,15.20
2014,08,14,02,03,15.20
2014,08,14,02,04,15.20
2014,08,14,02,05,15.20
2014,08,14,02,06,15.20
2014,08,14,02,07,15.20
2014,08,14,02,08,15.20
2014,08,14,02,09,15.20
2014,08,14,02,10,15.20
2014,08,14,02,11,15.20
2014,08,14,02,12,15.20
2014,08,14,02,13,15.20
2014,08,14,02,14,15.20
2014,08,14,02,15,15.20
2014,08,14,02,16,15.20
2014,08,14,02,17,15.20
2014,08,14,02,18,15.20
2014,08,14,02,19,15.20
2014,08,14,02,20,15.20
2014,08,14,02,21,15.20
2014,08,14,02,22,15.20
2014,08,14,02,23,15.20
2014,08,14,02,24,15.20
2014,08,14,02,25,15.20
2014,08,14,02,26,15.20
2014,08,14,02,27,15.20
2014,08,14,02,28,15.20
2014,08,14,02,29,15.20
2014,08,14,02,30,15.10
2014,08,14,02,31,15.10
2014,08,14,02,32,15.10
2014,08,14,02,33,15.10
2014,08,14,02,34,15.10
2014,08,14,02,35,15.10
2014,08,14,02,36,15.10
2014,08,14,02,37,15.00
2014,08,14,02,38,15.00
2014,08,14,02,39,15.00
2014,08,14,02,40,15.00
2014,08,14,02,41,15.00
2014,08,14,02,42,15.00
2014,08,14,02,43,15.00
2014,08,14,02,44,15.00
2014,08,14,02,45,15.00
2014,08,14,02,46,15.00
2014,08,14,02,47,15.00
2014,08,14,02,48,15.00
2014,08,14,02,49,15.00
2014,08,14,02,50,15.00
2014,08,14,02,51,15.00
2014,08,14,02,52,15.00
2014,08,14,02,53,15.00
2014,08,14,02,54,15.00
2014,08,14,02,55,15.00
2014,08,14,02,56,15.00
2014,08,14,02,57,15.00
2014,08,14,02,58,15.00
2014,08,14,02,59,15.00
2014,08,14,03,00,15.00
2014,08,14,03,01,15.00
2014,08,14,03,02,15.00
2014,08,14,03,03,15.00
2014,08,14,03,04,15.00
2014,08,14,03,05,15.00
2014,08,14,03,06,15.00
2014,08,14,03,07,15.00
2014,08,14,03,08,15.00
2014,08,14,03,09,15.00
2014,08,14,03,10,15.00
2014,08,14,03,11,15.00
2014,08,14,03,12,15.00
2014,08,14,03,13,15.00
2014,08,14,03,14,15.00
2014,08,14,03,15,15.00
2014,08,14,03,16,15.00
2014,08,14,03,17,15.00
2014,08,14,03,18,15.00
2014,08,14,03,19,15.00
2014,08,14,03,20,15.00
2014,08,14,03,21,15.00
2014,08,14,03,22,15.00
2014,08,14,03,23,15.00
2014,08,14,03,24,15.00
2014,08,14,03,25,15.00
2014,08,14,03,26,15.00
2014,08,14,03,27,15.00
2014,08,14,03,28,15.00
2014,08,14,03,29,15.00
2014,08,14,03,30,15.00
2014,08,14,03,31,15.00
2014,08,14,03,32,15.00
2014,08,14,03,33,15.00
2014,08,14,03,34,15.00
2014,08,14,03,35,15.00
2014,08,14,03,36,15.00
2014,08,14,03,37,15.00
2014,08,14,03,38,15.00
2014,08,14,03,39,15.00
2014,08,14,03,40,15.00
2014,08,14,03,41,15.00
2014,08,14,03,42,15.00
2014,08,14,03,43,15.00
2014,08,14,03,44,15.00
2014,08,14,03,45,15.00
2014,08,14,03,46,15.00
2014,08,14,03,47,15.00
2014,08,14,03,48,15.00
2014,08,14,03,49,15.00
2014,08,14,03,50,15.00
2014,08,14,03,51,15.00
2014,08,14,03,52,15.00
2014,08,14,03,53,15.00
2014,08,14,03,54,15.00
2014,08,14,03,55,15.00
2014,08,14,03,56,15.00
2014,08,14,03,57,15.00
2014,08,14,03,58,15.00
2014,08,14,03,59,15.00
2014,08,14,04,00,15.00
2014,08,14,04,01,15.00
2014,08,14,04,02,15.00
2014,08,14,04,03,15.00
2014,08,14,04,04,15.00
2014,08,14,04,05,15.00
2014,08,14,04,06,15.00
2014,08,14,04,07,15.00
2014,08,14,04,08,15.00
2014,08,14,04,09,15.00
2014,08,14,04,10,15.00
2014,08,14,04,11,15.00
2014,08,14,04,12,15.00
2014,08,14,04,13,15.00
2014,08,14,04,14,15.00
2014,08,14,04,15,15.00
2014,08,14,04,16,15.00
2014,08,14,04,17,15.00
2014,08,14,04,18,15.00
2014,08,14,04,19,14.90
2014,08,14,04,20,14.90
2014,08,14,04,21,14.90
2014,08,14,04,22,14.80
2014,08,14,04,23,14.80
2014,08,14,04,24,14.80
2014,08,14,04,25,14.80
2014,08,14,04,26,14.80
2014,08,14,04,27,14.80
2014,08,14,04,28,14.70
2014,08,14,04,29,14.70
2014,08,14,04,30,14.70
2014,08,14,04,31,14.70
2014,08,14,04,32,14.70
2014,08,14,04,33,14.60
2014,08,14,04,34,14.60
2014,08,14,04,35,14.60
2014,08,14,04,36,14.60
2014,08,14,04,37,14.60
2014,08,14,04,38,14.60
2014,08,14,04,39,14.60
2014,08,14,04,40,14.60
2014,08,14,04,41,14.60
2014,08,14,04,42,14.60
2014,08,14,04,43,14.60
2014,08,14,04,44,14.60
2014,08,14,04,45,14.60
2014,08,14,04,46,14.60
2014,08,14,04,47,14.60
2014,08,14,04,48,14.70
2014,08,14,04,49,14.70
2014,08,14,04,50,14.80
2014,08,14,04,51,14.80
2014,08,14,04,52,14.90
2014,08,14,04,53,14.90
2014,08,14,04,54,15.00
2014,08,14,04,55,15.00
2014,08,14,04,56,15.00
2014,08,14,04,57,15.00
2014,08,14,04,58,15.00
2014,08,14,04,59,15.00
2014,08,14,05,00,15.00
2014,08,14,05,01,15.00
2014,08,14,05,02,15.10
2014,08,14,05,03,15.20
2014,08,14,05,04,15.20
2014,08,14,05,05,15.30
2014,08,14,05,06,15.30
2014,08,14,05,07,15.30
2014,08,14,05,08,15.30
2014,08,14,05,09,15.30
2014,08,14,05,10,15.30
2014,08,14,05,11,15.30
2014,08,14,05,12,15.30
2014,08,14,05,13,15.30
2014,08,14,05,14,15.30
2014,08,14,05,15,15.30
2014,08,14,05,16,15.30
2014,08,14,05,17,15.30
2014,08,14,05,18,15.30
2014,08,14,05,19,15.30
2014,08,14,05,20,15.30
2014,08,14,05,21,15.30
2014,08,14,05,22,15.30
2014,08,14,05,23,15.30
2014,08,14,05,24,15.20
2014,08,14,05,25,15.20
2014,08,14,05,26,15.10
2014,08,14,05,27,15.10
2014,08,14,05,28,15.00
2014,08,14,05,29,15.00
2014,08,14,05,30,15.00
2014,08,14,05,31,15.00
2014,08,14,05,32,15.00
2014,08,14,05,33,15.00
2014,08,14,05,34,15.00
2014,08,14,05,35,15.00
2014,08,14,05,36,15.00
2014,08,14,05,37,15.00
2014,08,14,05,38,15.00
2014,08,14,05,39,15.00
2014,08,14,05,40,15.00
2014,08,14,05,41,14.90
2014,08,14,05,42,14.90
2014,08,14,05,43,14.90
2014,08,14,05,44,14.90
2014,08,14,05,45,14.90
2014,08,14,05,46,14.90
2014,08,14,05,47,14.90
2014,08,14,05,48,14.90
2014,08,14,05,49,14.90
2014,08,14,05,50,14.90
2014,08,14,05,51,14.90
2014,08,14,05,52,15.00
2014,08,14,05,53,14.90
2014,08,14,05,54,14.90
2014,08,14,05,55,14.90
2014,08,14,05,56,15.00
2014,08,14,05,57,15.00
2014,08,14,05,58,15.00
2014,08,14,05,59,15.00
2014,08,14,06,00,15.00
2014,08,14,06,01,15.00
2014,08,14,06,02,15.00
2014,08,14,06,03,15.00
2014,08,14,06,04,15.00
2014,08,14,06,05,15.00
2014,08,14,06,06,15.00
2014,08,14,06,07,15.00
2014,08,14,06,08,15.00
2014,08,14,06,09,15.00
2014,08,14,06,10,15.00
2014,08,14,06,11,15.00
2014,08,14,06,12,15.00
2014,08,14,06,13,15.00
2014,08,14,06,14,15.00
2014,08,14,06,15,15.00
2014,08,14,06,16,15.00
2014,08,14,06,17,15.00
2014,08,14,06,18,15.00
2014,08,14,06,19,15.00
2014,08,14,06,20,15.00
2014,08,14,06,21,15.00
2014,08,14,06,22,15.00
2014,08,14,06,23,15.00
2014,08,14,06,24,15.00
2014,08,14,06,25,15.00
2014,08,14,06,26,15.00
2014,08,14,06,27,15.10
2014,08,14,06,28,15.10
2014,08,14,06,29,15.10
2014,08,14,06,30,15.20
2014,08,14,06,31,15.20
2014,08,14,06,32,15.20
2014,08,14,06,33,15.20
2014,08,14,06,34,15.20
2014,08,14,06,35,15.20
2014,08,14,06,36,15.20
2014,08,14,06,37,15.20
2014,08,14,06,38,15.20
2014,08,14,06,39,15.20
2014,08,14,06,40,15.20
2014,08,14,06,41,15.20
2014,08,14,06,42,15.20
2014,08,14,06,43,15.20
2014,08,14,06,44,15.20
2014,08,14,06,45,15.20
2014,08,14,06,46,15.20
2014,08,14,06,47,15.20
2014,08,14,06,48,15.20
2014,08,14,06,49,15.20
2014,08,14,06,50,15.20
2014,08,14,06,51,15.20
2014,08,14,06,52,15.20
2014,08,14,06,53,15.30
2014,08,14,06,54,15.30
2014,08,14,06,55,15.30
2014,08,14,06,56,15.30
2014,08,14,06,57,15.30
2014,08,14,06,58,15.30
2014,08,14,06,59,15.30
2014,08,14,07,00,15.30
2014,08,14,07,01,15.40
2014,08,14,07,02,15.40
2014,08,14,07,03,15.40
2014,08,14,07,04,15.40
2014,08,14,07,05,15.40
2014,08,14,07,06,15.50
2014,08,14,07,07,15.50
2014,08,14,07,08,15.50
2014,08,14,07,09,15.60
2014,08,14,07,10,15.60
2014,08,14,07,11,15.60
2014,08,14,07,12,15.60
2014,08,14,07,13,15.60
2014,08,14,07,14,15.60
2014,08,14,07,15,15.60
2014,08,14,07,16,15.60
2014,08,14,07,17,15.60
2014,08,14,07,18,15.60
2014,08,14,07,19,15.60
2014,08,14,07,20,15.70
2014,08,14,07,21,15.70
2014,08,14,07,22,15.70
2014,08,14,07,23,15.70
2014,08,14,07,24,15.70
2014,08,14,07,25,15.70
2014,08,14,07,26,15.80
2014,08,14,07,27,15.80
2014,08,14,07,28,15.80
2014,08,14,07,29,15.80
2014,08,14,07,30,15.80
2014,08,14,07,31,15.80
2014,08,14,07,32,15.80
2014,08,14,07,33,15.90
2014,08,14,07,34,15.90
2014,08,14,07,35,15.90
2014,08,14,07,36,15.90
2014,08,14,07,37,15.90
2014,08,14,07,38,15.90
2014,08,14,07,39,16.00
2014,08,14,07,40,16.00
2014,08,14,07,41,16.00
2014,08,14,07,42,16.00
2014,08,14,07,43,16.10
2014,08,14,07,44,16.10
2014,08,14,07,45,16.10
2014,08,14,07,46,16.10
2014,08,14,07,47,16.10
2014,08,14,07,48,16.10
2014,08,14,07,49,16.20
2014,08,14,07,50,16.20
2014,08,14,07,51,16.20
2014,08,14,07,52,16.20
2014,08,14,07,53,16.20
2014,08,14,07,54,16.20
2014,08,14,07,55,16.30
2014,08,14,07,56,16.30
2014,08,14,07,57,16.30
2014,08,14,07,58,16.30
2014,08,14,07,59,16.30
2014,08,14,08,00,16.30
2014,08,14,08,01,16.30
2014,08,14,08,02,16.30
2014,08,14,08,03,16.40
2014,08,14,08,04,16.40
2014,08,14,08,05,16.40
2014,08,14,08,06,16.40
2014,08,14,08,07,16.40
2014,08,14,08,08,16.40
2014,08,14,08,09,16.40
2014,08,14,08,10,16.40
2014,08,14,08,11,16.50
2014,08,14,08,12,16.50
2014,08,14,08,13,16.50
2014,08,14,08,14,16.60
2014,08,14,08,15,16.60
2014,08,14,08,16,16.60
2014,08,14,08,17,16.60
2014,08,14,08,18,16.70
2014,08,14,08,19,16.70
2014,08,14,08,20,16.70
2014,08,14,08,21,16.60
2014,08,14,08,22,16.60
2014,08,14,08,23,16.60
2014,08,14,08,24,16.60
2014,08,14,08,25,16.70
2014,08,14,08,26,16.70
2014,08,14,08,27,16.70
2014,08,14,08,28,16.80
2014,08,14,08,29,16.80
2014,08,14,08,30,16.80
2014,08,14,08,31,16.90
2014,08,14,08,32,16.90
2014,08,14,08,33,16.90
2014,08,14,08,34,16.90
2014,08,14,08,35,16.90
2014,08,14,08,36,17.00
2014,08,14,08,37,17.00
2014,08,14,08,38,17.00
2014,08,14,08,39,17.10
2014,08,14,08,40,17.20
2014,08,14,08,41,17.20
2014,08,14,08,42,17.20
2014,08,14,08,43,17.20
2014,08,14,08,44,17.30
2014,08,14,08,45,17.30
2014,08,14,08,46,17.30
2014,08,14,08,47,17.30
2014,08,14,08,48,17.30
2014,08,14,08,49,17.30
2014,08,14,08,50,17.40
2014,08,14,08,51,17.40
2014,08,14,08,52,17.40
2014,08,14,08,53,17.50
2014,08,14,08,54,17.50
2014,08,14,08,55,17.60
2014,08,14,08,56,17.60
2014,08,14,08,57,17.60
2014,08,14,08,58,17.60
2014,08,14,08,59,17.70
2014,08,14,09,00,17.70
2014,08,14,09,01,17.70
2014,08,14,09,02,17.80
2014,08,14,09,03,17.80
2014,08,14,09,04,17.80
2014,08,14,09,05,17.80
2014,08,14,09,06,17.80
2014,08,14,09,07,17.80
2014,08,14,09,08,17.90
2014,08,14,09,09,17.90
2014,08,14,09,10,17.90
2014,08,14,09,11,18.00
2014,08,14,09,12,18.00
2014,08,14,09,13,18.10
2014,08,14,09,14,18.10
2014,08,14,09,15,18.10
2014,08,14,09,16,18.10
2014,08,14,09,17,18.10
2014,08,14,09,18,18.10
2014,08,14,09,19,18.20
2014,08,14,09,20,18.20
2014,08,14,09,21,18.20
2014,08,14,09,22,18.20
2014,08,14,09,23,18.20
2014,08,14,09,24,18.20
2014,08,14,09,25,18.20
2014,08,14,09,26,18.20
2014,08,14,09,27,18.20
2014,08,14,09,28,18.20
2014,08,14,09,29,18.20
2014,08,14,09,30,18.20
2014,08,14,09,31,18.20
2014,08,14,09,32,18.20
2014,08,14,09,33,18.20
2014,08,14,09,34,18.20
2014,08,14,09,35,18.20
2014,08,14,09,36,18.20
2014,08,14,09,37,18.20
2014,08,14,09,38,18.20
2014,08,14,09,39,18.20
2014,08,14,09,40,18.30
2014,08,14,09,41,18.30
2014,08,14,09,42,18.30
2014,08,14,09,43,18.30
2014,08,14,09,44,18.30
2014,08,14,09,45,18.30
2014,08,14,09,46,18.30
2014,08,14,09,47,18.30
2014,08,14,09,48,18.30
2014,08,14,09,49,18.30
2014,08,14,09,50,18.30
2014,08,14,09,51,18.30
2014,08,14,09,52,18.30
2014,08,14,09,53,18.30
2014,08,14,09,54,18.30
2014,08,14,09,55,18.30
2014,08,14,09,56,18.30
2014,08,14,09,57,18.30
2014,08,14,09,58,18.30
2014,08,14,09,59,18.30
2014,08,14,10,00,18.30
2014,08,14,10,01,18.30
2014,08,14,10,02,18.30
2014,08,14,10,03,18.40
2014,08,14,10,04,18.40
2014,08,14,10,05,18.40
2014,08,14,10,06,18.40
2014,08,14,10,07,18.40
2014,08,14,10,08,18.40
2014,08,14,10,09,18.40
2014,08,14,10,10,18.30
2014,08,14,10,11,18.30
2014,08,14,10,12,18.30
2014,08,14,10,13,18.30
2014,08,14,10,14,18.30
2014,08,14,10,15,18.30
2014,08,14,10,16,18.30
2014,08,14,10,17,18.30
2014,08,14,10,18,18.30
2014,08,14,10,19,18.30
2014,08,14,10,20,18.30
2014,08,14,10,21,18.40
2014,08,14,10,22,18.40
2014,08,14,10,23,18.40
2014,08,14,10,24,18.40
2014,08,14,10,25,18.40
2014,08,14,10,26,18.50
2014,08,14,10,27,18.60
2014,08,14,10,28,18.60
2014,08,14,10,29,18.60
2014,08,14,10,30,18.70
2014,08,14,10,31,18.70
2014,08,14,10,32,18.70
2014,08,14,10,33,18.60
2014,08,14,10,34,18.70
2014,08,14,10,35,18.70
2014,08,14,10,36,18.70
2014,08,14,10,37,18.80
2014,08,14,10,38,18.80
2014,08,14,10,39,18.80
2014,08,14,10,40,18.80
2014,08,14,10,41,18.90
2014,08,14,10,42,19.00
2014,08,14,10,43,19.00
2014,08,14,10,44,19.00
2014,08,14,10,45,18.90
2014,08,14,10,46,18.90
2014,08,14,10,47,19.00
2014,08,14,10,48,19.00
2014,08,14,10,49,19.00
2014,08,14,10,50,19.00
2014,08,14,10,51,18.90
2014,08,14,10,52,18.90
2014,08,14,10,53,18.90
2014,08,14,10,54,18.90
2014,08,14,10,55,18.90
2014,08,14,10,56,18.90
2014,08,14,10,57,19.00
2014,08,14,10,58,19.00
2014,08,14,10,59,19.10
2014,08,14,11,00,19.10
2014,08,14,11,01,19.10
2014,08,14,11,02,19.20
2014,08,14,11,03,19.30
2014,08,14,11,04,19.30
2014,08,14,11,05,19.40
2014,08,14,11,06,19.40
2014,08,14,11,07,19.40
2014,08,14,11,08,19.50
2014,08,14,11,09,19.40
2014,08,14,11,10,19.50
2014,08,14,11,11,19.50
2014,08,14,11,12,19.40
2014,08,14,11,13,19.30
2014,08,14,11,14,19.30
2014,08,14,11,15,19.30
2014,08,14,11,16,19.30
2014,08,14,11,17,19.20
2014,08,14,11,18,19.20
2014,08,14,11,19,19.20
2014,08,14,11,20,19.10
2014,08,14,11,21,19.10
2014,08,14,11,22,19.10
2014,08,14,11,23,19.20
2014,08,14,11,24,19.20
2014,08,14,11,25,19.20
2014,08,14,11,26,19.20
2014,08,14,11,27,19.20
2014,08,14,11,28,19.20
2014,08,14,11,29,19.20
2014,08,14,11,30,19.20
2014,08,14,11,31,19.30
2014,08,14,11,32,19.30
2014,08,14,11,33,19.40
2014,08,14,11,34,19.40
2014,08,14,11,35,19.30
2014,08,14,11,36,19.40
2014,08,14,11,37,19.40
2014,08,14,11,38,19.50
2014,08,14,11,39,19.50
2014,08,14,11,40,19.50
2014,08,14,11,41,19.60
2014,08,14,11,42,19.60
2014,08,14,11,43,19.70
2014,08,14,11,44,19.70
2014,08,14,11,45,19.70
2014,08,14,11,46,19.70
2014,08,14,11,47,19.60
2014,08,14,11,48,19.50
2014,08,14,11,49,19.40
2014,08,14,11,50,19.30
2014,08,14,11,51,19.20
2014,08,14,11,52,19.20
2014,08,14,11,53,19.30
2014,08,14,11,54,19.30
2014,08,14,11,55,19.30
2014,08,14,11,56,19.30
2014,08,14,11,57,19.30
2014,08,14,11,58,19.30
2014,08,14,11,59,19.40
2014,08,14,12,00,19.50
2014,08,14,12,01,19.50
2014,08,14,12,02,19.60
2014,08,14,12,03,19.70
2014,08,14,12,04,19.70
2014,08,14,12,05,19.80
2014,08,14,12,06,19.80
2014,08,14,12,07,19.80
2014,08,14,12,08,19.80
2014,08,14,12,09,19.80
2014,08,14,12,10,19.90
2014,08,14,12,11,19.90
2014,08,14,12,12,20.00
2014,08,14,12,13,20.10
2014,08,14,12,14,20.10
2014,08,14,12,15,20.20
2014,08,14,12,16,20.20
2014,08,14,12,17,20.30
2014,08,14,12,18,20.40
2014,08,14,12,19,20.50
2014,08,14,12,20,20.60
2014,08,14,12,21,20.60
2014,08,14,12,22,20.70
2014,08,14,12,23,20.60
2014,08,14,12,24,20.60
2014,08,14,12,25,20.50
2014,08,14,12,26,20.50
2014,08,14,12,27,20.50
2014,08,14,12,28,20.50
2014,08,14,12,29,20.50
2014,08,14,12,30,20.40
2014,08,14,12,31,20.30
2014,08,14,12,32,20.30
2014,08,14,12,33,20.30
2014,08,14,12,34,20.30
2014,08,14,12,35,20.30
2014,08,14,12,36,20.20
2014,08,14,12,37,20.20
2014,08,14,12,38,20.10
2014,08,14,12,39,20.10
2014,08,14,12,40,20.00
2014,08,14,12,41,20.00
2014,08,14,12,42,19.90
2014,08,14,12,43,19.90
2014,08,14,12,44,19.90
2014,08,14,12,45,19.90
2014,08,14,12,46,19.90
2014,08,14,12,47,20.00
2014,08,14,12,48,20.00
2014,08,14,12,49,20.00
2014,08,14,12,50,20.20
2014,08,14,12,51,20.20
2014,08,14,12,52,20.40
2014,08,14,12,53,20.50
2014,08,14,12,54,20.50
2014,08,14,12,55,20.50
2014,08,14,12,56,20.60
2014,08,14,12,57,20.60
2014,08,14,12,58,20.50
2014,08,14,12,59,20.50
2014,08,14,13,00,20.40
2014,08,14,13,01,20.40
2014,08,14,13,02,20.40
2014,08,14,13,03,20.40
2014,08,14,13,04,20.40
2014,08,14,13,05,20.40
2014,08,14,13,06,20.30
2014,08,14,13,07,20.30
2014,08,14,13,08,20.30
2014,08,14,13,09,20.30
2014,08,14,13,10,20.30
2014,08,14,13,11,20.30
2014,08,14,13,12,20.40
2014,08,14,13,13,20.40
2014,08,14,13,14,20.40
2014,08,14,13,15,20.40
2014,08,14,13,16,20.30
2014,08,14,13,17,20.20
2014,08,14,13,18,20.10
2014,08,14,13,19,20.10
2014,08,14,13,20,20.10
2014,08,14,13,21,20.10
2014,08,14,13,22,20.10
2014,08,14,13,23,20.20
2014,08,14,13,24,20.30
2014,08,14,13,25,20.30
2014,08,14,13,26,20.30
2014,08,14,13,27,20.30
2014,08,14,13,28,20.40
2014,08,14,13,29,20.40
2014,08,14,13,30,20.40
2014,08,14,13,31,20.40
2014,08,14,13,32,20.40
2014,08,14,13,33,20.40
2014,08,14,13,34,20.30
2014,08,14,13,35,20.30
2014,08,14,13,36,20.30
2014,08,14,13,37,20.30
2014,08,14,13,38,20.30
2014,08,14,13,39,20.30
2014,08,14,13,40,20.40
2014,08,14,13,41,20.40
2014,08,14,13,42,20.40
2014,08,14,13,43,20.40
2014,08,14,13,44,20.40
2014,08,14,13,45,20.40
2014,08,14,13,46,20.40
2014,08,14,13,47,20.40
2014,08,14,13,48,20.50
2014,08,14,13,49,20.50
2014,08,14,13,50,20.50
2014,08,14,13,51,20.60
2014,08,14,13,52,20.70
2014,08,14,13,53,20.70
2014,08,14,13,54,20.80
2014,08,14,13,55,20.70
2014,08,14,13,56,20.70
2014,08,14,13,57,20.70
2014,08,14,13,58,20.70
2014,08,14,13,59,20.60
2014,08,14,14,00,20.60
2014,08,14,14,01,20.50
2014,08,14,14,02,20.50
2014,08,14,14,03,20.50
2014,08,14,14,04,20.50
2014,08,14,14,05,20.60
2014,08,14,14,06,20.60
2014,08,14,14,07,20.60
2014,08,14,14,08,20.60
2014,08,14,14,09,20.60
2014,08,14,14,10,20.60
2014,08,14,14,11,20.60
2014,08,14,14,12,20.60
2014,08,14,14,13,20.60
2014,08,14,14,14,20.60
2014,08,14,14,15,20.70
2014,08,14,14,16,20.80
2014,08,14,14,17,20.80
2014,08,14,14,18,20.80
2014,08,14,14,19,20.80
2014,08,14,14,20,20.90
2014,08,14,14,21,20.90
2014,08,14,14,22,20.90
2014,08,14,14,23,21.00
2014,08,14,14,24,21.20
2014,08,14,14,25,21.30
2014,08,14,14,26,21.30
2014,08,14,14,27,21.30
2014,08,14,14,28,21.30
2014,08,14,14,29,21.30
2014,08,14,14,30,21.30
2014,08,14,14,31,21.40
2014,08,14,14,32,21.60
2014,08,14,14,33,21.70
2014,08,14,14,34,21.80
2014,08,14,14,35,21.80
2014,08,14,14,36,21.90
2014,08,14,14,37,21.90
2014,08,14,14,38,22.00
2014,08,14,14,39,22.00
2014,08,14,14,40,22.10
2014,08,14,14,41,22.20
2014,08,14,14,42,22.30
2014,08,14,14,43,22.30
2014,08,14,14,44,22.40
2014,08,14,14,45,22.40
2014,08,14,14,46,22.40
2014,08,14,14,47,22.40
2014,08,14,14,48,22.40
2014,08,14,14,49,22.30
2014,08,14,14,50,22.30
2014,08,14,14,51,22.20
2014,08,14,14,52,22.20
2014,08,14,14,53,22.10
2014,08,14,14,54,22.10
2014,08,14,14,55,22.10
2014,08,14,14,56,22.10
2014,08,14,14,57,22.20
2014,08,14,14,58,22.20
2014,08,14,14,59,22.30
2014,08,14,15,00,22.30
2014,08,14,15,01,22.40
2014,08,14,15,02,22.40
2014,08,14,15,03,22.40
2014,08,14,15,04,22.40
2014,08,14,15,05,22.30
2014,08,14,15,06,22.30
2014,08,14,15,07,22.30
2014,08,14,15,08,22.30
2014,08,14,15,09,22.20
2014,08,14,15,10,22.20
2014,08,14,15,11,22.10
2014,08,14,15,12,22.10
2014,08,14,15,13,22.10
2014,08,14,15,14,22.10
2014,08,14,15,15,22.10
2014,08,14,15,16,22.10
2014,08,14,15,17,22.20
2014,08,14,15,18,22.30
2014,08,14,15,19,22.40
2014,08,14,15,20,22.60
2014,08,14,15,21,22.70
2014,08,14,15,22,22.80
2014,08,14,15,23,22.90
2014,08,14,15,24,23.10
2014,08,14,15,25,23.20
2014,08,14,15,26,23.30
2014,08,14,15,27,23.30
2014,08,14,15,28,23.30
2014,08,14,15,29,23.30
2014,08,14,15,30,23.30
2014,08,14,15,31,23.30
2014,08,14,15,32,23.30
2014,08,14,15,33,23.30
2014,08,14,15,34,23.30
2014,08,14,15,35,23.30
2014,08,14,15,36,23.30
2014,08,14,15,37,23.30
2014,08,14,15,38,23.40
2014,08,14,15,39,23.40
2014,08,14,15,40,23.40
2014,08,14,15,41,23.50
2014,08,14,15,42,23.60
2014,08,14,15,43,23.70
2014,08,14,15,44,23.80
2014,08,14,15,45,23.90
2014,08,14,15,46,24.00
2014,08,14,15,47,24.20
2014,08,14,15,48,24.30
2014,08,14,15,49,24.40
2014,08,14,15,50,24.40
2014,08,14,15,51,24.30
2014,08,14,15,52,24.30
2014,08,14,15,53,24.20
2014,08,14,15,54,24.20
2014,08,14,15,55,24.20
2014,08,14,15,56,24.20
2014,08,14,15,57,24.30
2014,08,14,15,58,24.40
2014,08,14,15,59,24.40
2014,08,14,16,00,24.40
2014,08,14,16,01,24.40
2014,08,14,16,02,24.40
2014,08,14,16,03,24.40
2014,08,14,16,04,24.40
2014,08,14,16,05,24.40
2014,08,14,16,06,24.50
2014,08,14,16,07,24.60
2014,08,14,16,08,24.60
2014,08,14,16,09,24.60
2014,08,14,16,10,24.50
2014,08,14,16,11,24.50
2014,08,14,16,12,24.40
2014,08,14,16,13,24.30
2014,08,14,16,14,24.30
2014,08,14,16,15,24.20
2014,08,14,16,16,24.10
2014,08,14,16,17,24.00
2014,08,14,16,18,23.90
2014,08,14,16,19,23.80
2014,08,14,16,20,23.70
2014,08,14,16,21,23.60
2014,08,14,16,22,23.50
2014,08,14,16,23,23.40
2014,08,14,16,24,23.30
2014,08,14,16,25,23.30
2014,08,14,16,26,23.30
2014,08,14,16,27,23.30
2014,08,14,16,28,23.30
2014,08,14,16,29,23.30
2014,08,14,16,30,23.30
2014,08,14,16,31,23.30
2014,08,14,16,32,23.30
2014,08,14,16,33,23.30
2014,08,14,16,34,23.30
2014,08,14,16,35,23.40
2014,08,14,16,36,23.50
2014,08,14,16,37,23.60
2014,08,14,16,38,23.70
2014,08,14,16,39,23.80
2014,08,14,16,40,23.90
2014,08,14,16,41,23.90
2014,08,14,16,42,23.90
2014,08,14,16,43,23.90
2014,08,14,16,44,23.90
2014,08,14,16,45,24.00
2014,08,14,16,46,24.00
2014,08,14,16,47,24.10
2014,08,14,16,48,24.10
2014,08,14,16,49,24.20
2014,08,14,16,50,24.30
2014,08,14,16,51,24.30
2014,08,14,16,52,24.40
2014,08,14,16,53,24.40
2014,08,14,16,54,24.40
2014,08,14,16,55,24.50
2014,08,14,16,56,24.40
2014,08,14,16,57,24.40
2014,08,14,16,58,24.30
2014,08,14,16,59,24.30
2014,08,14,17,00,24.20
2014,08,14,17,01,24.20
2014,08,14,17,02,24.10
2014,08,14,17,03,24.00
2014,08,14,17,04,23.90
2014,08,14,17,05,23.90
2014,08,14,17,06,23.80
2014,08,14,17,07,23.90
2014,08,14,17,08,23.90
2014,08,14,17,09,23.80
2014,08,14,17,10,23.90
2014,08,14,17,11,23.90
2014,08,14,17,12,23.90
2014,08,14,17,13,24.00
2014,08,14,17,14,24.00
2014,08,14,17,15,24.00
2014,08,14,17,16,24.00
2014,08,14,17,17,24.00
2014,08,14,17,18,23.90
2014,08,14,17,19,24.00